Theta_e
307 307 307 308 308 312 318 318 315 316 316 311 313 315 314 317 317 317 318 322 329 336 334 332 331 331 338 336 336 338 341 339 338 337 337 345 347 345 346 345 346 345 346 347 345 343 343 342 341 339 337 336 335 335 333 330 330 331 330 328 328 328 329 330 329 326 325 325 326 327 329 332 333 336 337 337 337 336 335 333 333 334 335 336 336 336 335 335 334 329 325 323 319 316 314 313 316
306 307 308 309 309 315 319 317 314 314 314 311 314 316 316 317 317 318 319 322 331 339 339 336 334 337 341 341 340 338 342 347 346 345 346 346 345 346 345 345 345 343 347 346 344 344 343 342 340 338 337 336 335 335 332 330 331 331 330 328 328 329 330 331 329 326 323 323 326 327 330 333 335 336 336 335 334 333 331 329 330 331 332 331 330 330 329 328 327 326 326 325 321 319 315 312 316
307 308 310 311 312 317 320 317 313 312 311 310 313 317 318 318 320 324 324 328 337 341 341 340 339 340 340 339 340 337 342 347 346 347 346 345 346 346 344 345 344 341 346 346 343 344 343 342 340 338 337 336 335 334 331 330 331 331 329 328 329 330 330 331 330 326 323 322 323 325 328 331 333 333 332 331 330 330 329 328 329 329 328 325 323 323 323 322 321 323 325 325 323 324 319 314 315
308 309 312 316 316 317 318 317 315 313 312 311 312 322 324 324 328 329 331 336 340 340 341 342 340 340 341 340 341 340 345 346 347 347 346 346 346 345 344 345 342 341 346 346 344 344 343 341 339 338 337 336 336 334 331 330 332 330 329 328 328 329 329 331 331 327 324 323 323 325 327 329 331 330 329 328 328 329 329 329 328 328 325 324 323 322 322 321 320 320 322 325 326 327 323 316 315
309 311 313 317 319 317 319 317 316 313 312 313 314 324 329 329 332 331 335 339 338 338 341 342 340 340 343 345 344 344 345 347 346 346 347 346 346 344 344 344 342 342 345 346 345 344 342 341 340 339 338 336 336 334 332 330 331 330 329 328 328 328 329 329 330 329 326 324 322 324 326 327 327 326 327 328 329 330 331 331 330 330 328 326 324 322 322 320 320 319 320 324 327 327 322 317 315
312 314 314 317 320 318 317 315 314 313 315 316 315 324 329 330 333 333 336 337 336 338 339 341 340 341 345 346 346 347 346 347 346 346 347 346 345 344 343 342 342 342 343 344 345 344 341 341 341 339 338 337 336 335 331 331 331 331 330 328 328 328 328 329 330 330 329 327 324 323 323 324 323 323 328 331 331 331 332 332 332 331 329 328 325 322 321 320 319 318 319 323 327 326 321 319 317
314 316 316 316 317 317 316 314 314 315 316 316 317 323 327 330 330 330 334 333 335 338 339 340 342 342 345 345 345 346 346 347 347 347 347 346 345 343 342 341 342 341 340 340 340 343 342 340 341 339 338 337 336 335 331 330 331 331 331 330 328 328 328 328 329 329 329 329 328 325 323 321 322 326 330 331 331 331 331 331 330 329 329 328 326 323 319 318 319 318 318 319 324 325 321 320 319
314 317 318 316 317 316 316 315 315 317 317 317 320 323 324 326 324 325 330 333 333 336 340 340 342 341 342 344 345 346 346 347 348 348 347 345 345 343 341 341 341 340 339 337 337 341 339 337 340 340 339 338 336 335 332 330 331 331 331 331 329 328 328 329 329 328 328 329 329 329 327 324 323 328 330 330 332 331 331 330 329 327 327 327 327 325 319 317 317 317 317 317 321 323 319 318 318
314 318 317 315 317 316 314 315 316 318 318 316 319 322 322 322 322 322 326 330 333 335 339 340 340 339 342 346 346 346 347 348 348 348 347 345 344 342 341 340 341 340 339 337 335 338 336 334 338 339 338 339 337 336 334 330 330 330 330 331 330 329 329 329 329 329 328 328 328 329 329 328 327 328 329 331 332 332 331 330 329 327 326 327 327 327 320 316 317 319 317 316 318 320 317 315 317
315 317 317 315 316 314 312 314 316 317 317 317 318 320 320 320 320 321 323 327 331 334 338 337 339 339 342 345 345 347 348 347 347 347 347 345 343 340 340 341 341 340 340 339 338 336 331 330 334 338 338 339 339 337 335 332 330 330 330 330 330 330 329 329 329 328 328 328 328 327 328 329 329 330 331 332 333 332 332 331 330 328 327 326 328 327 322 319 325 327 320 317 317 316 315 315 319
316 315 316 315 313 312 311 314 316 316 316 317 318 318 318 318 318 320 321 324 328 333 335 336 338 341 343 344 346 347 347 347 347 346 345 344 342 340 340 340 340 340 340 341 341 337 331 329 331 336 338 338 339 338 337 334 331 330 329 330 330 330 330 329 329 329 329 328 328 328 326 327 327 329 331 332 333 332 332 331 330 329 328 326 327 328 326 326 329 330 325 320 318 317 315 316 321
316 316 315 314 313 313 314 314 315 316 316 316 317 318 317 317 318 318 321 323 327 331 334 335 336 339 341 342 345 347 347 347 347 346 345 343 343 341 339 339 339 340 341 342 341 338 333 329 331 335 337 337 338 339 338 336 334 332 330 329 329 329 330 329 329 329 329 328 328 327 326 326 326 327 329 331 333 332 331 331 330 330 329 327 328 328 328 331 330 328 326 322 322 321 319 318 322
316 316 315 313 315 315 315 315 315 316 316 316 317 317 316 317 317 318 319 321 325 329 331 334 335 337 340 342 346 347 347 347 346 345 344 343 341 340 339 339 339 340 341 342 341 339 334 331 332 335 335 336 337 339 339 337 336 335 332 330 330 329 329 329 329 329 329 328 328 327 326 325 325 326 328 330 331 331 330 330 330 329 329 327 327 327 328 331 330 328 327 324 325 324 323 320 321
315 317 315 314 316 315 315 314 314 314 314 318 317 316 316 317 318 318 319 319 323 328 332 335 334 335 341 343 345 346 346 346 346 345 343 343 341 340 339 339 341 341 341 342 342 340 337 334 333 335 335 334 336 338 338 337 337 337 335 333 331 330 330 330 329 329 329 329 329 328 327 326 327 327 328 329 330 330 329 329 330 329 329 328 327 327 328 329 329 329 328 325 325 325 325 323 322
315 316 315 315 315 314 314 314 314 314 315 318 316 316 317 318 320 320 319 318 322 332 334 335 334 334 336 338 342 344 346 346 345 344 344 342 341 340 340 341 342 342 341 342 343 341 340 338 334 334 336 335 336 338 338 337 336 338 337 336 334 333 332 331 331 330 329 329 329 328 328 328 328 329 328 328 329 328 327 329 329 329 328 326 326 327 328 329 327 328 327 327 326 326 324 322 322
314 315 315 315 314 313 314 315 314 314 315 317 316 316 316 318 322 322 322 320 326 333 332 334 335 334 333 335 341 344 345 345 344 344 343 342 341 341 341 342 341 341 341 341 341 341 340 340 337 336 336 337 337 337 337 337 337 337 337 337 337 335 334 333 332 331 331 330 329 329 329 329 329 329 329 329 329 326 326 327 327 327 327 324 325 326 327 328 328 327 327 328 329 328 325 323 321
313 315 314 314 313 313 314 315 314 314 316 318 317 317 315 318 323 325 324 322 327 331 331 336 335 334 337 339 343 344 345 345 344 344 343 342 341 341 342 341 341 341 340 340 340 340 339 339 339 338 337 337 337 337 337 337 337 337 337 337 337 337 336 335 333 333 332 331 330 329 329 329 331 330 329 329 328 325 324 324 324 325 326 323 323 325 326 326 327 328 327 328 328 329 328 326 324
313 314 314 313 314 314 314 315 315 315 316 317 317 317 315 316 323 328 326 323 327 331 334 339 336 336 341 343 344 344 345 345 344 343 343 342 341 341 341 341 341 340 339 339 338 339 338 338 338 339 338 336 336 337 336 336 337 337 337 337 337 337 337 336 335 334 333 332 331 330 331 331 333 334 330 329 329 326 325 321 320 324 325 324 322 321 322 323 324 327 328 328 326 326 326 326 327
313 314 314 314 315 315 315 315 315 316 316 316 317 317 315 317 323 328 327 325 329 331 334 339 337 338 342 344 344 343 344 345 344 343 343 342 342 342 341 341 340 340 339 338 338 338 337 337 337 338 339 338 336 336 336 337 336 336 337 336 337 337 337 337 336 335 334 334 333 331 333 332 333 335 331 330 329 328 326 322 320 322 324 325 321 319 319 321 322 324 325 327 328 327 325 324 326
313 314 313 314 315 315 315 315 315 315 316 316 317 316 316 320 324 327 327 328 330 330 333 337 338 339 342 344 343 343 344 344 344 344 343 342 342 341 341 341 340 339 338 337 338 337 336 337 337 337 338 339 337 336 337 338 337 336 336 336 336 337 337 337 337 338 336 336 335 331 333 334 334 336 332 329 329 328 327 324 321 321 323 324 321 321 323 321 321 323 320 321 328 329 327 326 326
313 313 313 314 315 314 314 315 315 315 315 315 316 315 317 319 322 326 328 329 327 329 335 336 338 340 342 344 342 342 344 344 343 343 342 342 342 341 340 340 340 338 338 337 337 337 337 337 337 336 336 337 337 336 337 337 337 336 335 336 335 335 336 337 338 337 337 336 335 332 334 335 335 336 333 330 332 331 329 327 325 323 324 323 321 323 326 325 324 326 321 317 323 328 329 328 326
313 313 314 315 315 313 314 314 314 314 315 315 315 315 315 317 320 325 329 328 326 330 335 336 339 340 342 343 342 342 342 342 343 342 341 341 340 340 339 340 339 338 337 337 337 337 337 336 335 334 333 333 335 336 335 334 335 337 337 336 335 336 336 337 337 335 336 335 335 335 334 335 334 335 334 333 333 332 331 331 331 330 327 324 324 324 327 328 328 328 325 321 321 325 329 330 326
312 313 314 314 314 314 314 314 314 314 314 315 315 315 315 315 318 324 328 328 326 329 333 336 340 340 342 343 341 341 341 341 341 341 340 340 339 339 339 339 339 337 337 337 337 336 335 335 333 331 330 329 330 332 332 332 333 335 337 336 335 337 337 337 336 335 337 335 335 335 332 333 334 335 334 334 334 330 330 333 333 333 331 328 327 326 328 330 329 328 327 326 323 322 326 329 329
312 313 314 313 313 314 314 314 314 314 314 315 315 315 315 315 317 323 328 328 326 326 331 337 341 341 342 342 340 341 340 340 340 340 339 339 338 338 339 338 337 337 336 334 334 333 332 333 332 331 331 327 327 329 329 330 331 332 333 334 335 335 336 337 337 336 336 336 335 334 333 333 334 335 334 334 334 329 330 333 333 333 333 332 329 326 329 329 328 327 326 325 323 320 322 326 329
312 312 313 314 314 314 314 314 315 314 314 315 314 315 315 315 318 322 327 328 326 328 332 337 340 341 342 341 339 340 339 338 339 339 338 337 338 338 338 337 335 333 331 327 327 331 331 330 329 329 328 324 324 326 327 328 327 326 328 332 334 333 334 336 336 335 335 335 334 334 333 333 333 334 334 334 334 329 328 331 330 330 331 333 331 327 329 328 327 326 323 323 322 322 323 323 325
313 312 313 314 314 315 315 315 315 314 314 314 315 315 316 316 317 321 325 328 328 331 335 338 339 340 341 340 339 340 339 338 337 337 337 337 338 338 335 333 329 324 323 320 321 330 330 326 327 327 326 323 320 318 319 322 320 319 323 328 332 332 332 333 333 333 331 331 332 333 334 333 331 332 334 333 331 329 328 329 328 327 328 330 330 327 328 327 327 326 323 324 323 322 324 324 324
314 314 314 314 314 315 314 314 314 314 314 314 315 316 316 316 317 320 324 328 330 332 336 338 339 340 341 340 339 339 338 337 336 336 337 337 337 336 331 326 324 321 320 319 323 328 325 325 329 327 324 319 319 319 315 316 318 319 322 325 329 331 332 332 332 332 329 328 330 333 334 333 331 331 333 330 328 328 328 330 329 328 327 327 328 326 326 327 327 326 324 325 324 323 325 325 324
314 314 314 315 315 315 314 315 314 315 315 314 316 316 316 317 317 319 323 327 331 333 335 338 340 340 340 340 339 338 337 337 336 335 336 335 333 331 327 322 321 321 320 320 325 323 317 325 331 326 321 313 317 325 318 314 319 323 325 325 328 330 331 332 332 331 330 329 330 332 333 333 332 332 331 329 328 329 328 329 330 329 328 327 327 326 326 326 328 327 324 324 324 324 326 325 324
314 314 314 314 315 314 314 315 315 315 315 313 316 315 316 317 317 320 323 326 330 332 334 337 339 341 340 340 339 338 338 338 337 336 334 331 328 326 323 320 318 321 322 320 321 318 314 322 325 319 316 309 313 323 321 318 320 324 325 325 328 329 329 331 333 332 331 330 329 329 330 331 331 332 329 327 328 329 329 329 330 329 328 326 326 326 325 325 327 327 323 323 324 324 324 322 322
314 314 314 314 314 314 315 316 315 316 314 313 315 314 315 317 317 321 323 325 329 331 334 335 339 341 340 340 340 340 339 339 338 335 331 329 328 325 320 318 317 322 325 319 317 317 314 317 316 313 312 310 313 317 319 320 319 321 323 323 325 326 327 331 332 331 330 331 329 326 328 329 330 331 329 329 330 329 329 330 330 329 329 327 326 325 325 324 326 327 324 323 324 323 323 321 321
314 314 313 314 313 313 316 316 315 316 314 314 315 314 315 316 317 321 323 325 328 329 332 334 338 340 340 341 341 340 340 338 336 333 331 329 327 323 320 318 318 322 323 319 318 317 315 314 313 312 312 311 312 312 315 321 317 317 321 320 320 322 324 328 330 330 329 329 329 327 328 328 329 330 329 330 330 329 329 330 330 328 328 328 326 325 325 325 325 326 325 326 324 323 325 324 323
314 313 312 313 313 313 316 316 317 315 314 316 315 313 315 316 316 320 322 324 327 328 330 333 336 339 340 340 340 340 339 336 334 333 331 328 324 321 319 318 318 320 320 319 318 316 315 314 313 312 312 310 311 312 315 320 315 314 319 318 317 318 320 324 325 325 327 327 327 328 328 328 329 329 329 329 329 330 330 330 330 329 328 329 327 326 326 326 326 326 325 326 326 325 326 326 324
314 314 312 313 312 313 314 316 317 317 315 316 315 315 316 316 316 319 322 323 326 326 328 333 336 337 338 338 338 338 337 335 333 332 328 323 322 320 319 318 319 319 319 319 318 316 315 314 313 312 311 311 312 314 315 317 314 315 318 315 313 315 319 322 322 322 324 324 325 327 326 326 328 329 329 329 329 329 330 330 331 330 329 329 329 328 327 326 326 326 324 324 326 328 329 328 326
313 314 314 314 313 314 314 314 317 318 316 317 316 316 316 316 317 319 321 323 324 325 326 331 334 335 336 337 337 337 336 335 332 330 325 321 321 321 319 319 319 319 320 320 319 317 316 315 313 312 311 312 313 314 314 315 315 315 316 313 311 314 318 321 323 324 322 321 321 323 323 324 326 327 327 327 327 329 329 330 330 330 330 330 329 329 329 327 326 325 325 324 324 327 329 329 328
313 314 314 314 313 313 314 315 317 317 316 316 316 316 317 317 316 317 320 322 324 325 326 330 333 334 335 335 335 335 336 335 333 330 326 321 321 321 320 319 319 320 319 319 319 317 317 315 314 312 310 310 312 312 311 311 312 313 313 312 313 316 319 320 322 324 321 320 319 318 319 321 323 324 323 323 324 325 326 328 330 330 329 329 330 331 331 330 328 326 325 325 325 325 325 325 326
314 315 314 314 313 313 315 316 317 317 316 316 317 316 317 317 316 317 319 322 324 325 327 330 330 332 333 334 334 334 334 335 333 331 328 322 320 321 321 320 319 320 319 319 319 318 317 316 314 312 310 309 309 309 310 312 316 317 315 317 319 321 322 322 322 323 322 320 318 315 316 318 319 320 321 320 319 320 322 324 328 330 329 330 331 331 332 331 329 326 325 326 326 325 325 324 324
316 315 314 313 313 313 316 317 317 318 317 316 317 317 317 317 317 317 319 321 323 325 327 328 328 329 330 331 333 334 334 334 332 330 328 323 320 320 320 321 320 320 320 319 319 319 318 316 314 312 310 310 309 309 312 315 318 319 318 319 320 320 320 320 320 321 320 315 312 312 313 314 313 314 318 320 320 319 320 321 325 329 330 330 331 330 331 331 329 327 327 327 327 327 327 326 326
316 315 314 314 314 314 316 317 317 318 317 316 317 316 316 318 318 317 317 318 321 324 326 327 327 326 327 329 331 333 334 333 329 328 328 325 322 320 320 321 320 320 319 319 319 319 318 317 315 313 310 310 309 309 310 311 313 316 318 319 319 319 319 321 321 318 314 309 306 307 307 307 307 308 313 317 319 320 321 321 323 326 327 328 330 330 330 330 329 329 328 328 328 327 328 328 328
316 315 315 314 314 315 316 318 318 317 317 316 317 316 316 318 319 318 318 317 319 322 324 326 325 325 325 326 328 330 333 333 329 327 328 327 324 321 320 321 320 320 320 319 319 319 318 317 316 314 311 310 309 309 309 309 309 312 315 315 316 317 315 316 317 313 310 308 305 306 305 304 307 312 313 314 317 320 321 321 321 323 324 326 327 328 329 328 329 329 329 329 329 329 329 329 328
316 315 314 314 315 315 315 317 318 319 318 317 317 316 316 318 318 319 319 319 320 321 321 323 324 324 324 324 325 327 330 333 331 328 328 327 326 324 321 321 320 320 319 319 319 319 319 318 317 315 311 310 309 308 309 309 309 308 309 309 310 312 310 308 309 308 307 308 305 306 306 303 308 316 318 317 318 319 319 321 321 321 322 324 325 326 327 327 327 328 329 330 329 329 329 329 329
317 317 315 315 316 315 315 317 318 319 319 318 317 314 315 317 318 318 319 319 319 319 318 319 320 321 322 324 324 325 327 330 332 331 329 327 327 325 322 320 320 320 319 319 319 319 319 318 318 316 312 310 309 308 308 309 309 308 307 307 307 308 307 307 310 310 308 308 307 306 306 305 307 314 317 318 319 319 318 319 320 321 321 321 323 324 325 326 326 327 329 329 329 329 329 329 329
316 317 317 316 317 317 317 317 317 316 316 318 317 313 312 316 317 318 319 318 317 318 318 318 318 318 319 320 322 323 324 326 329 331 330 328 327 326 324 322 320 320 320 319 319 319 319 318 318 317 313 310 309 309 309 309 309 308 307 308 309 310 311 312 314 313 311 311 309 306 306 306 305 308 313 314 316 317 318 318 318 320 320 319 320 321 322 323 323 325 327 327 327 328 328 328 328
314 317 317 316 317 318 317 317 316 313 314 317 318 313 312 315 317 318 319 318 317 318 318 317 318 318 317 318 318 320 322 323 325 328 329 329 328 327 325 324 322 320 319 319 319 319 318 318 318 317 314 310 309 309 309 309 309 308 308 309 311 313 315 314 312 310 310 310 308 306 307 306 305 305 307 308 310 312 316 317 317 318 318 318 319 319 319 320 320 321 323 324 325 325 326 327 327
315 319 318 316 317 318 318 317 315 314 315 317 317 315 312 312 315 318 318 317 317 318 318 318 317 317 317 317 317 317 319 321 323 325 326 328 328 327 326 325 324 321 320 319 319 319 318 318 318 318 316 311 309 309 310 310 310 308 308 310 311 314 315 313 309 308 309 308 307 307 307 306 306 306 305 306 307 309 313 316 315 314 316 317 317 317 316 315 314 315 316 319 320 321 323 324 324
317 319 318 316 318 318 317 316 314 315 315 314 315 315 313 312 314 318 317 316 316 318 318 318 317 317 317 317 318 317 318 319 320 322 323 326 326 326 325 325 324 322 321 320 319 319 318 318 318 318 317 313 309 309 310 310 310 308 308 309 309 312 313 311 310 309 309 308 308 307 307 306 306 306 306 306 306 306 308 309 309 308 310 312 313 312 309 308 307 307 308 310 313 314 315 317 319
317 317 317 316 317 317 317 315 314 315 315 313 314 316 314 312 314 316 316 315 316 317 317 317 318 318 318 318 318 317 317 317 317 317 320 323 325 325 324 324 323 323 322 321 320 319 318 318 318 317 317 314 310 310 310 310 310 309 308 308 308 310 310 309 310 311 309 309 309 307 307 308 306 306 306 306 306 305 305 305 305 305 305 306 307 306 304 304 304 304 304 304 305 305 306 307 312
317 316 316 316 316 316 316 315 313 314 313 313 314 316 314 312 313 315 316 316 316 317 317 318 319 318 317 318 318 317 316 316 315 315 315 318 322 325 326 324 322 321 322 321 320 319 318 318 318 317 317 315 312 310 310 310 310 309 308 308 308 309 309 309 310 310 309 310 309 308 309 310 308 306 306 306 306 305 305 305 305 305 305 304 305 304 304 304 304 304 304 304 304 304 304 304 304
316 316 316 315 315 315 314 314 314 313 313 314 315 315 314 312 312 315 317 316 316 317 317 317 318 318 317 317 316 316 316 316 315 315 315 315 318 322 325 325 322 320 320 321 320 319 318 318 317 318 317 316 314 310 310 311 310 309 308 308 309 308 309 309 309 309 310 310 310 310 311 311 310 307 306 306 306 305 305 305 305 305 305 304 304 304 304 305 305 305 305 306 306 305 305 305 305
315 315 315 314 313 314 313 312 313 312 313 314 314 314 314 312 313 316 316 316 316 316 317 316 316 317 317 316 316 316 316 316 316 316 315 316 318 322 322 322 321 319 319 320 320 319 318 318 318 317 317 317 315 311 310 311 311 310 309 308 308 308 309 309 309 310 310 311 312 311 311 312 311 309 308 306 306 306 305 305 305 305 305 305 304 305 305 305 305 306 306 306 306 306 306 306 306
314 314 313 313 313 314 314 312 312 311 313 315 315 314 313 312 314 317 317 316 316 315 315 315 315 315 316 316 316 317 316 316 317 317 317 318 321 323 322 320 320 319 318 319 320 319 319 317 317 317 316 316 316 312 310 310 311 311 310 309 308 309 309 309 309 311 310 312 313 312 311 314 313 311 309 307 306 306 306 305 305 305 305 305 305 305 305 305 305 306 306 306 306 306 306 306 305
314 314 313 313 313 313 313 312 311 311 313 314 315 314 313 312 315 316 315 315 315 314 313 313 314 314 316 317 317 317 317 317 317 319 320 320 322 323 323 322 323 322 319 319 319 318 319 317 317 317 316 316 316 314 311 310 311 311 310 309 309 308 309 309 309 310 310 311 312 311 311 313 315 314 311 308 307 307 306 306 306 305 305 305 305 305 305 305 305 305 305 305 305 305 305 305 305
314 314 312 312 313 313 312 313 313 311 312 314 314 313 313 314 315 315 315 314 313 313 313 313 314 315 316 317 318 318 318 318 318 318 320 321 322 323 322 322 322 321 318 318 318 318 318 317 317 317 316 316 316 315 312 310 311 312 311 311 310 309 309 308 309 310 310 310 311 311 311 312 314 315 312 309 308 308 307 307 306 306 306 305 305 304 304 305 305 304 304 304 304 305 305 305 304
313 313 312 313 313 313 313 314 314 311 311 313 312 313 313 314 315 314 314 313 312 312 313 313 314 315 316 317 318 318 318 319 318 318 319 321 322 323 322 321 320 319 318 317 318 318 318 317 317 316 316 315 316 316 314 311 311 311 311 311 311 310 309 309 309 309 309 310 311 311 311 311 312 313 312 310 309 308 308 307 307 307 306 306 305 305 304 304 304 304 304 304 304 304 304 304 304
312 312 312 313 313 313 313 313 313 312 312 313 312 313 313 312 313 314 313 313 312 311 312 313 314 315 315 316 317 318 318 318 318 318 318 319 320 322 321 321 321 320 319 319 318 318 318 317 317 316 315 315 316 316 314 312 310 311 312 312 312 311 310 310 309 309 309 310 310 311 312 311 311 312 312 312 311 310 309 308 307 307 307 307 306 306 305 304 304 304 304 304 304 304 304 304 304
312 312 312 312 312 312 313 313 313 313 313 313 312 313 312 311 313 314 314 314 313 312 312 313 314 315 315 316 317 317 318 318 318 318 317 317 317 318 320 321 321 319 319 319 319 318 318 318 317 317 316 316 315 315 315 313 311 310 311 312 312 312 311 311 310 310 310 309 310 310 311 312 312 312 312 312 312 311 310 309 308 308 307 307 307 306 306 305 304 304 304 304 304 304 304 304 304
311 311 312 312 312 312 312 313 313 312 312 313 313 312 312 312 313 314 314 314 313 313 312 312 314 314 315 316 316 317 317 317 317 317 317 316 316 316 317 318 319 318 318 318 318 318 318 318 317 318 317 317 316 315 314 313 311 310 310 311 312 312 312 312 311 311 311 310 310 311 311 312 312 312 312 312 312 312 312 310 309 309 308 307 307 306 306 306 305 305 304 304 304 304 304 304 304
312 311 312 312 312 312 312 312 312 312 312 312 313 312 312 314 315 315 314 315 314 313 313 313 314 314 314 315 316 315 316 316 316 316 316 316 317 317 317 318 318 318 318 318 318 318 318 318 318 318 318 318 319 318 316 314 312 310 309 310 311 312 312 313 312 312 312 311 311 311 312 312 313 313 313 312 312 312 313 312 311 310 309 308 307 307 306 306 306 306 305 304 304 304 303 304 304
312 312 312 312 312 312 312 312 311 312 311 311 312 312 313 314 316 315 314 315 313 313 313 313 313 314 314 314 314 314 314 314 314 314 315 315 315 316 316 317 317 318 318 318 318 318 318 318 318 318 318 319 320 320 319 318 316 314 312 310 310 310 311 312 313 313 312 312 312 312 312 313 313 314 314 314 313 313 313 313 312 311 310 309 308 307 306 306 306 306 306 305 304 303 303 304 304
Wind_Speed
3 4 6 6 8 8 6 6 5 4 5 6 5 3 3 2 3 4 3 2 2 2 2 1 4 8 4 2 7 4 7 3 2 0 2 8 13 15 16 18 21 19 17 16 15 15 17 17 17 17 16 15 14 14 15 14 13 12 10 10 10 11 12 13 13 14 13 13 13 12 12 12 13 13 12 13 13 13 13 12 12 10 10 11 11 10 10 9 8 7 7 6 6 6 6 7 7
5 5 6 7 9 6 4 5 5 3 6 6 6 3 3 3 3 5 1 2 2 4 2 3 7 8 2 1 5 5 5 10 11 9 9 13 16 15 18 19 20 19 16 16 16 16 18 17 17 17 16 15 15 15 15 14 13 12 10 10 10 11 12 12 13 13 13 13 13 12 12 12 13 13 12 12 12 12 12 12 11 10 10 9 9 9 9 9 8 7 8 7 7 7 7 7 7
7 8 7 7 9 6 4 5 6 5 6 7 4 3 2 3 3 1 2 2 3 4 4 6 8 7 4 4 6 5 4 9 11 13 13 14 17 17 19 19 19 19 15 16 16 16 18 18 18 17 16 15 15 15 15 14 13 12 11 11 11 11 12 12 13 13 13 13 13 13 12 13 13 12 12 12 12 13 12 11 11 11 10 9 8 8 8 8 8 8 8 9 8 8 8 8 8
8 10 10 6 6 7 5 5 6 6 6 6 2 5 2 2 2 3 2 4 5 4 5 7 7 5 3 3 5 4 7 8 9 11 14 14 17 19 19 18 19 18 14 14 15 15 17 18 18 17 17 15 15 16 16 15 13 12 11 11 11 12 12 12 13 13 12 12 13 13 13 12 12 12 12 13 13 12 12 11 10 10 10 9 9 8 7 7 8 8 9 10 10 8 9 9 8
9 10 11 7 6 4 4 4 4 7 6 5 3 4 4 3 4 4 6 5 4 3 5 6 4 4 1 5 3 3 8 8 8 10 14 15 17 20 19 18 18 18 15 13 14 14 16 18 19 18 17 16 15 15 16 15 14 13 12 11 11 12 12 12 12 12 12 11 12 12 12 12 12 12 12 12 11 10 10 9 9 8 8 8 8 7 7 7 7 8 9 10 11 10 10 9 9
8 8 9 7 6 2 4 5 4 7 3 3 4 4 5 5 6 6 6 4 3 3 5 5 2 6 3 6 6 5 6 6 10 11 13 17 18 19 20 19 18 18 17 15 13 12 15 17 18 18 17 16 16 16 17 16 14 14 13 12 11 12 12 12 12 11 11 11 11 11 11 11 12 13 12 11 9 9 8 8 8 7 7 7 6 6 6 6 6 8 9 11 12 11 11 10 10
8 7 8 7 5 4 6 6 6 5 2 1 4 3 5 5 5 2 4 5 5 4 5 4 3 6 5 5 6 7 4 6 11 12 14 19 19 19 20 19 18 18 17 17 15 12 14 16 17 18 18 18 17 17 18 17 15 14 13 12 11 12 12 11 11 10 10 10 10 10 10 11 12 13 11 9 8 8 8 8 8 7 6 6 5 5 5 5 6 7 9 11 12 12 12 11 10
9 6 6 6 4 4 7 6 5 3 2 1 3 1 3 3 3 3 2 4 5 5 5 4 6 5 4 4 3 6 5 8 11 13 17 20 20 18 19 18 19 19 17 17 16 14 14 16 16 17 19 19 18 18 18 18 16 15 14 13 12 11 11 11 11 10 9 9 9 9 9 10 11 12 10 8 8 8 8 8 7 7 6 5 5 5 5 5 5 6 7 8 10 12 13 12 10
8 5 4 6 5 5 6 6 4 3 2 3 4 3 1 3 4 4 4 4 3 5 6 6 7 4 6 6 6 8 8 8 12 15 17 19 20 18 18 18 19 19 18 17 16 15 14 15 16 16 17 18 18 18 18 18 17 16 14 13 12 12 11 11 10 10 9 9 9 8 9 10 11 11 10 9 9 9 9 8 8 7 6 5 5 4 5 5 4 5 6 7 7 9 11 11 10
8 7 4 5 5 5 7 6 3 2 4 5 4 4 3 5 6 6 7 5 5 6 6 6 5 4 9 9 9 9 9 11 14 16 17 17 19 18 18 17 17 19 18 16 15 14 14 15 16 15 16 17 18 18 18 18 17 16 14 14 13 12 12 11 11 10 9 9 8 8 8 9 9 10 9 10 10 10 9 9 8 7 6 5 5 5 5 5 6 6 5 5 6 6 8 11 12
8 7 5 5 6 6 6 5 3 2 3 5 4 3 3 3 6 7 8 6 6 6 6 6 5 8 10 9 9 8 10 14 15 17 17 17 18 18 18 17 17 18 17 15 13 13 13 14 15 15 15 16 17 18 19 19 18 16 15 15 14 13 12 12 11 10 10 9 9 8 7 7 7 8 8 9 10 10 9 9 8 8 7 5 5 5 5 6 7 6 5 5 6 6 7 10 12
7 5 5 6 6 6 4 3 2 2 4 6 4 3 3 3 6 8 9 8 8 8 8 7 6 9 8 8 9 9 12 15 15 16 18 17 17 17 18 18 17 17 14 13 12 12 12 13 14 14 15 15 16 17 19 20 18 18 18 16 14 13 13 12 12 11 11 10 9 8 7 6 6 6 7 8 10 10 10 9 8 8 6 5 6 5 5 6 7 6 5 5 5 5 6 9 11
8 3 5 6 4 4 3 4 2 3 5 5 3 5 4 5 7 8 9 8 10 11 10 8 9 9 6 10 11 13 15 15 15 16 18 18 16 16 17 16 15 14 13 11 12 13 12 12 12 13 14 14 15 16 19 19 16 19 20 17 16 14 13 12 12 11 11 11 9 8 7 6 5 5 6 7 9 10 10 9 8 7 6 5 5 5 6 7 7 6 6 6 6 5 6 8 9
7 4 6 5 3 4 4 4 3 4 4 5 6 5 5 6 6 8 8 10 10 9 7 9 10 9 7 9 11 15 17 15 16 17 18 16 16 16 16 15 13 12 13 11 11 13 12 12 11 11 13 13 14 15 16 15 16 19 19 19 18 16 16 14 13 12 12 11 10 8 7 6 5 5 6 7 9 10 10 9 8 7 6 6 6 6 7 8 7 7 7 7 6 6 7 8 8
7 5 5 5 4 4 5 4 3 5 3 7 5 5 7 4 4 7 8 11 7 6 7 9 9 6 7 9 11 17 19 17 18 18 18 16 16 16 15 13 12 12 12 11 10 12 11 11 12 12 12 13 13 14 13 13 17 19 18 18 19 19 18 16 14 14 13 12 11 9 8 7 6 6 7 8 9 10 9 8 7 7 6 6 6 7 8 8 8 9 9 8 7 6 7 7 8
6 5 5 5 5 4 4 3 4 4 2 5 3 6 9 5 3 6 7 9 4 8 8 8 8 3 5 9 13 20 20 19 20 19 18 17 17 16 14 12 12 11 11 11 10 11 11 11 12 12 12 12 11 13 12 13 16 17 16 17 19 20 19 17 17 15 14 13 12 11 9 8 7 7 7 9 10 9 9 8 7 7 6 6 6 7 8 8 9 9 10 9 8 7 6 6 6
6 6 6 5 5 4 3 4 4 1 2 3 4 8 10 7 2 5 4 9 7 10 10 6 7 3 4 10 18 24 21 20 21 20 19 17 17 15 13 12 11 11 11 11 10 10 11 11 10 10 11 11 11 12 12 13 14 14 14 15 17 18 17 17 18 16 14 13 12 11 10 9 7 7 7 9 10 9 9 8 8 8 7 7 6 7 8 8 9 10 11 10 10 9 7 6 5
6 6 6 6 5 3 1 3 2 4 3 3 7 9 10 10 3 3 4 10 11 12 11 7 8 6 8 15 22 24 22 21 20 19 19 17 17 16 13 13 12 11 11 11 10 9 11 11 10 9 9 10 10 10 11 12 14 15 15 15 16 16 16 16 17 17 16 14 12 11 10 9 7 7 7 8 9 9 8 8 8 9 9 8 8 7 7 8 10 11 12 12 11 11 9 9 9
8 5 5 6 4 1 2 3 4 5 6 8 9 9 10 10 4 2 5 11 13 12 12 11 11 10 13 19 21 22 22 21 20 19 18 17 16 16 14 13 13 12 11 11 10 10 11 11 10 9 9 9 10 10 10 10 12 14 14 14 14 14 14 16 17 17 16 13 12 12 11 9 7 7 8 8 9 8 7 8 8 10 10 10 9 8 8 8 10 12 12 13 12 11 10 10 10
8 5 6 5 3 3 3 4 6 7 9 10 9 10 10 6 3 3 5 9 13 12 12 14 15 15 17 21 20 21 22 20 19 18 17 17 16 15 15 14 13 12 11 11 10 11 11 10 10 10 9 8 9 9 9 9 10 12 12 12 13 13 13 14 16 14 14 13 13 14 11 9 7 7 8 8 8 8 7 8 9 10 11 11 10 8 8 8 9 11 13 14 14 12 10 9 9
5 6 7 4 2 4 5 5 6 8 9 11 10 11 8 4 3 5 6 7 10 12 11 12 15 18 20 22 21 22 23 21 19 18 18 17 16 14 14 13 12 12 12 11 11 11 11 10 10 10 9 9 8 7 8 9 9 9 10 11 11 11 12 13 14 13 13 14 14 12 10 9 7 7 7 7 7 7 7 8 8 8 10 11 11 8 7 7 7 9 11 13 15 13 10 9 10
4 7 10 7 5 6 5 5 5 7 9 10 10 9 7 6 5 6 7 7 4 6 9 7 12 18 21 22 22 23 23 22 21 20 19 17 16 14 13 13 13 13 12 12 12 12 11 10 10 10 9 9 9 7 7 7 8 8 9 10 9 9 10 11 12 12 13 14 13 11 11 10 8 7 7 7 7 7 6 6 7 8 9 11 12 11 8 6 6 7 8 10 14 13 10 9 10
6 8 9 8 8 7 7 7 7 7 9 10 8 7 7 8 6 5 9 5 4 3 7 7 12 16 18 21 21 22 24 23 21 20 19 18 16 14 14 13 12 12 11 12 12 12 12 11 10 10 9 9 8 7 7 7 8 9 9 9 9 9 9 9 9 10 12 13 13 13 13 10 8 8 8 8 8 9 7 6 7 8 9 10 11 10 8 6 7 8 8 9 13 15 14 10 9
9 7 5 7 8 8 9 9 8 8 10 10 9 8 8 8 4 3 8 3 5 3 7 9 13 15 17 20 19 21 23 22 21 20 19 17 16 14 13 12 12 12 12 13 13 12 11 11 10 9 9 8 7 7 7 8 8 8 9 8 8 8 8 8 9 9 10 12 12 13 13 10 9 8 8 8 8 10 9 8 8 9 9 9 10 10 7 7 8 9 10 10 13 16 16 14 10
10 8 5 7 7 8 9 8 9 10 11 10 8 9 7 6 2 2 6 5 4 4 9 12 15 16 17 19 19 21 22 21 20 20 19 17 15 14 13 12 14 15 14 14 14 12 11 10 10 9 9 8 8 8 8 8 9 9 8 7 7 7 7 8 9 9 9 10 11 12 12 12 11 10 9 8 8 11 12 11 12 12 11 10 10 10 7 8 8 10 10 11 14 15 15 15 13
7 8 7 7 8 8 7 8 9 8 7 5 5 6 3 3 4 4 4 6 6 6 10 14 17 19 18 18 20 21 21 21 20 20 19 17 15 14 15 15 16 16 15 14 13 12 11 10 9 8 8 7 7 8 8 8 8 8 8 8 7 7 8 9 9 9 9 9 10 10 11 13 12 10 9 9 9 11 12 14 14 14 12 12 11 10 9 8 8 9 10 10 13 14 13 14 14
2 7 8 9 10 8 7 7 7 6 5 4 5 3 2 4 6 3 5 6 7 8 10 13 16 19 19 19 20 21 20 20 20 20 18 17 16 16 18 18 18 17 16 14 13 12 12 11 9 8 8 7 6 5 6 7 6 6 7 8 7 7 9 9 8 8 7 8 8 9 11 12 12 10 9 10 11 12 12 12 13 14 14 14 13 11 10 8 6 6 8 9 11 12 12 12 12
3 7 8 10 9 5 5 5 5 6 4 4 7 3 3 5 3 3 6 7 8 9 11 13 15 17 19 20 21 20 19 19 19 19 19 19 19 20 20 20 19 18 16 15 13 12 12 11 10 9 7 7 6 4 5 5 5 5 6 7 7 9 10 9 8 8 8 7 7 9 10 11 11 10 9 11 12 12 12 11 12 15 16 15 14 13 11 8 6 5 7 9 11 11 11 12 12
6 7 7 7 6 4 2 2 3 5 3 3 6 5 7 7 3 7 6 7 8 9 11 13 14 16 18 20 20 20 19 19 19 19 20 21 22 22 21 21 20 18 16 15 13 11 11 11 10 9 6 6 5 5 4 4 5 6 7 8 8 9 9 7 7 7 9 9 9 10 11 12 13 11 10 12 13 14 13 12 12 14 16 17 15 13 12 9 7 5 6 9 10 11 11 12 12
6 6 6 5 6 5 5 3 5 4 3 2 6 6 7 7 6 6 5 6 8 10 11 13 14 15 18 19 19 19 19 20 20 20 22 23 22 22 21 21 20 18 16 15 12 11 10 10 9 8 6 6 5 5 4 4 5 6 8 9 9 9 8 6 5 6 8 10 12 12 11 12 12 11 11 11 12 14 14 12 12 13 15 18 17 14 12 11 9 6 6 8 10 11 11 12 12
4 4 4 4 5 6 8 4 5 6 3 2 7 7 5 8 6 4 4 6 7 8 10 12 13 15 16 17 17 18 18 19 20 20 21 23 22 21 21 21 20 18 15 14 12 11 10 9 8 7 6 6 5 5 5 4 6 6 6 7 8 8 7 6 5 5 5 7 10 10 11 12 11 10 11 11 11 13 13 10 10 10 13 18 18 15 13 12 10 8 8 9 10 11 11 11 11
4 4 4 4 4 6 10 5 2 4 5 2 7 7 4 7 5 4 3 5 7 7 8 11 12 14 15 16 16 17 17 18 19 18 21 23 22 21 20 20 20 17 15 13 12 11 9 9 7 7 6 5 4 5 5 3 5 5 5 6 6 6 5 4 5 5 5 5 6 5 7 10 12 12 11 11 12 12 12 10 10 10 11 16 18 17 16 14 12 11 10 10 10 11 11 11 11
5 4 2 3 4 4 8 7 6 4 4 4 5 7 2 6 5 4 3 4 6 7 8 10 11 13 14 14 15 16 17 18 18 18 22 24 22 20 20 20 19 17 15 13 12 10 8 7 6 6 6 4 4 4 4 4 4 4 4 4 4 3 2 1 2 3 5 5 4 2 2 3 6 8 8 9 9 9 10 10 10 11 12 14 17 18 19 17 14 13 12 12 12 12 11 11 12
5 4 1 2 3 2 5 8 6 2 3 3 3 7 3 4 3 2 3 5 6 7 7 8 10 11 12 13 15 17 17 18 19 19 23 24 23 21 20 20 21 18 16 14 12 10 8 7 6 6 6 5 5 4 4 5 4 3 2 2 2 1 2 2 3 2 3 5 5 4 3 2 2 3 5 6 6 6 7 7 8 10 11 13 15 17 18 18 16 16 16 16 15 14 13 13 14
3 4 2 3 4 3 2 5 5 3 3 3 3 7 3 2 2 4 5 6 7 8 7 6 8 10 11 13 15 17 17 16 18 19 23 25 24 22 21 21 22 19 17 15 13 11 9 7 6 7 6 6 6 6 5 4 2 2 2 1 0 1 2 3 3 3 2 2 4 4 5 5 4 4 5 5 6 6 6 7 7 9 10 11 13 15 15 16 16 17 18 18 18 17 16 16 16
2 2 3 3 4 4 1 5 6 5 3 4 3 4 3 0 2 5 5 6 8 9 7 6 7 9 11 13 14 17 16 14 15 18 23 27 25 23 22 22 22 21 18 16 14 12 11 8 8 8 7 7 7 6 5 3 2 2 1 1 2 3 3 3 3 3 2 2 3 4 5 5 5 5 5 5 6 7 7 8 8 8 9 10 11 12 13 15 16 16 18 19 18 18 18 18 18
3 4 5 4 4 3 3 5 5 4 5 3 1 4 4 1 0 4 6 6 8 10 9 9 9 9 11 12 14 16 15 13 14 18 24 28 26 24 24 23 23 22 20 18 16 15 13 10 9 9 8 8 7 6 6 5 4 3 3 3 4 4 4 3 3 3 3 2 3 4 4 5 6 6 4 3 5 7 8 9 9 7 8 9 8 8 10 13 14 15 17 18 19 20 19 19 18
4 6 6 5 6 3 5 4 3 3 5 3 2 6 6 3 1 4 6 7 9 11 11 11 11 11 11 12 13 15 14 12 13 18 25 28 28 27 26 25 24 24 22 20 18 17 15 13 11 9 9 8 8 8 7 7 6 5 4 5 5 5 5 4 4 3 2 2 2 2 3 4 5 5 4 4 4 4 5 6 7 6 6 8 7 6 7 9 11 13 15 16 18 20 20 19 18
5 5 5 5 4 3 5 5 3 1 4 3 0 6 7 3 2 4 7 7 8 9 11 11 11 11 12 12 12 13 14 14 15 18 23 28 30 30 28 27 26 25 24 22 21 19 18 16 13 11 10 10 9 10 9 8 7 7 7 7 7 6 6 6 5 4 3 3 2 3 2 2 2 2 2 3 4 4 3 3 5 6 6 6 5 4 4 4 7 10 12 13 14 15 16 17 17
6 5 6 4 2 3 3 6 5 1 2 4 3 6 7 6 5 5 7 7 5 6 8 9 9 10 11 12 12 13 15 17 18 18 21 26 30 32 31 30 29 28 27 25 24 22 20 19 15 12 12 11 10 10 10 9 8 7 8 10 9 8 8 7 6 5 5 4 4 4 4 4 5 5 5 4 4 4 4 3 3 4 6 5 4 3 2 2 3 5 8 10 11 13 14 15 16
5 5 7 4 2 4 4 2 3 3 3 3 5 7 7 7 8 7 7 7 7 7 7 8 9 9 10 11 12 13 15 17 18 18 21 27 31 34 33 32 31 30 29 28 26 24 22 20 17 14 13 12 11 11 11 10 9 8 9 11 11 10 9 8 6 5 5 5 5 5 5 5 6 7 6 6 5 5 5 4 3 3 4 4 4 3 3 2 2 3 4 6 8 11 12 12 13
5 7 9 6 3 4 4 1 3 5 5 2 4 7 5 4 7 6 6 7 8 8 7 7 7 8 10 12 13 14 15 16 18 18 22 29 33 34 34 35 34 32 31 28 27 26 24 21 19 16 14 13 13 13 11 11 10 8 9 10 11 11 9 8 6 5 5 5 4 5 5 5 5 6 6 6 5 6 5 5 5 4 4 4 4 4 3 3 3 3 3 4 5 8 8 8 8
4 6 9 8 6 5 5 4 4 6 3 2 2 7 4 3 5 5 5 7 8 8 6 5 6 8 10 11 12 13 15 16 18 19 21 25 30 34 35 37 36 34 32 30 28 28 25 23 21 18 15 15 15 14 13 12 11 9 8 10 11 11 9 8 7 7 6 5 5 5 5 5 6 6 7 6 6 7 6 5 5 5 5 4 5 5 5 5 4 3 3 4 3 4 5 5 6
1 3 6 8 7 6 6 6 5 5 3 2 5 6 6 5 4 5 6 7 8 9 7 5 5 6 7 8 9 10 12 13 16 18 21 22 25 30 35 38 37 36 34 31 30 29 28 26 23 20 17 16 16 15 14 13 12 11 10 12 13 11 9 8 8 6 6 5 4 5 5 5 6 6 7 7 7 7 7 7 6 6 6 6 5 5 4 5 5 3 3 3 3 2 3 3 4
1 2 3 6 5 5 5 6 6 3 3 5 6 5 6 7 3 5 6 8 9 9 6 5 5 5 5 5 6 8 10 12 14 16 20 21 24 28 32 35 36 36 36 33 31 31 30 28 25 22 19 18 17 16 15 14 13 13 13 15 15 13 11 9 7 6 5 5 4 4 5 5 5 6 6 7 7 7 8 8 8 8 8 8 7 5 4 4 4 4 4 3 3 3 2 3 3
3 3 4 4 4 4 5 6 5 3 5 8 5 4 5 6 4 5 6 6 6 5 4 3 3 3 2 2 4 7 8 10 13 15 17 18 21 25 28 31 34 36 36 35 33 33 32 30 27 25 22 20 19 17 16 16 15 15 15 17 17 15 13 11 9 7 6 5 4 4 4 4 5 5 5 6 6 6 6 7 7 7 8 8 7 6 5 4 4 4 3 3 2 2 2 2 4
4 6 6 6 6 5 5 5 4 4 7 6 3 4 5 6 5 4 2 1 1 1 1 1 2 2 3 4 5 7 8 9 10 13 16 16 17 19 21 26 31 35 35 35 35 36 35 32 29 28 25 22 20 19 18 17 17 17 17 17 17 16 14 13 11 9 7 5 4 4 4 4 4 4 4 5 5 4 4 4 5 5 5 6 6 6 5 5 5 5 5 5 4 3 2 1 1
5 6 6 6 5 4 5 5 4 6 7 1 4 4 5 7 4 2 3 4 3 2 1 2 4 5 7 8 9 9 10 10 9 10 12 14 17 18 19 22 26 31 33 33 35 37 37 34 32 30 27 24 22 21 20 19 19 19 18 18 18 16 14 13 11 10 8 6 5 5 5 5 4 4 4 4 4 3 3 3 2 2 3 4 4 4 4 4 5 5 5 5 5 5 4 4 4
6 7 6 6 6 5 6 6 5 7 4 3 5 3 5 7 3 4 5 4 3 1 2 3 5 7 9 9 9 9 9 10 9 8 8 9 14 18 20 20 22 27 29 30 34 38 38 36 34 31 29 27 25 23 22 21 20 20 20 20 19 17 14 13 11 10 8 7 7 6 5 5 5 5 5 4 4 3 3 2 1 1 1 2 2 3 3 3 3 3 4 4 5 5 5 5 5
8 7 6 7 6 6 7 6 6 7 2 5 4 2 5 7 1 5 4 3 3 2 1 2 4 6 7 8 9 9 8 9 8 6 4 5 9 12 15 17 18 22 25 28 32 36 38 37 35 33 31 29 26 25 24 22 21 20 21 21 20 18 16 14 12 11 9 9 9 8 6 6 7 6 6 5 4 4 3 3 3 2 1 0 1 1 1 2 2 3 3 4 4 4 5 5 5
7 6 6 7 6 6 7 6 6 7 2 4 5 3 5 5 2 5 4 4 4 3 2 2 2 3 5 6 7 8 9 9 8 6 4 1 5 8 10 12 14 17 22 26 30 34 36 36 35 34 33 32 28 26 25 24 22 21 21 22 21 20 18 16 14 13 11 10 10 9 8 7 7 7 8 7 6 5 4 4 4 3 2 2 1 1 0 1 2 3 3 3 4 4 4 5 5
5 4 7 7 5 6 5 2 3 5 4 2 4 4 4 1 4 5 5 6 6 5 4 3 4 4 5 6 7 8 9 10 9 7 7 5 3 6 7 9 10 13 18 22 26 30 33 33 34 34 35 33 30 27 26 25 24 22 22 22 21 21 20 18 16 15 13 11 11 11 10 9 8 9 10 9 7 7 6 6 5 5 4 3 3 3 2 1 1 1 2 3 3 4 5 5 6
2 5 7 3 2 6 6 2 2 1 7 6 5 6 5 3 4 7 8 7 7 6 5 5 5 6 6 7 9 9 10 11 11 9 8 7 6 6 6 5 6 8 11 15 19 23 26 27 30 34 35 34 31 28 28 27 25 25 23 22 22 21 21 20 19 17 15 13 12 12 12 11 11 11 11 10 9 9 8 8 8 7 6 6 5 4 3 2 2 2 2 3 3 4 5 6 6
4 5 3 1 1 5 6 5 3 4 8 7 6 8 8 6 4 7 10 9 9 7 6 7 6 6 8 9 9 10 10 11 11 11 9 9 9 9 8 6 4 3 4 7 10 13 17 19 23 29 32 33 32 29 29 28 27 27 25 23 23 22 22 21 20 19 17 16 15 14 14 14 14 14 13 12 11 11 10 10 10 10 9 8 7 6 5 4 4 4 4 4 4 4 5 5 6
6 4 1 2 5 6 5 6 6 8 8 7 8 10 9 9 5 7 11 11 10 9 8 8 7 7 7 8 9 10 10 11 12 13 12 11 10 10 10 8 6 6 5 4 4 5 8 12 16 21 26 29 30 31 31 31 29 29 28 27 25 23 23 22 21 21 20 19 18 17 16 15 15 16 16 15 14 13 13 12 12 12 11 11 10 9 8 7 6 6 6 6 6 6 6 6 6
5 4 4 4 5 6 6 6 6 8 8 8 9 9 7 7 5 7 11 12 11 10 9 7 7 7 7 7 8 9 11 11 12 14 14 13 12 12 12 11 10 9 7 6 6 6 5 7 11 15 19 22 25 29 32 33 32 31 30 30 28 26 24 23 23 22 21 21 20 19 19 17 17 17 18 18 17 16 15 15 14 14 14 13 12 11 10 9 9 9 9 9 9 8 8 9 9
4 6 7 6 4 4 5 7 7 7 8 8 8 10 7 2 2 4 9 11 11 10 9 7 7 8 7 8 8 9 11 11 12 13 15 16 15 14 13 13 13 12 11 11 10 8 7 7 7 9 11 13 16 21 26 30 32 33 33 33 31 29 26 25 25 24 24 23 22 21 21 20 19 19 19 19 19 19 18 17 16 16 15 15 15 14 12 11 11 11 10 11 10 10 10 10 11
5 5 7 7 7 6 7 9 8 7 8 8 8 10 6 2 2 1 6 10 10 10 10 8 9 9 8 8 9 9 11 11 13 14 15 16 17 16 15 15 15 15 13 13 13 12 10 8 7 6 7 8 8 10 13 18 23 27 30 32 33 33 31 30 28 27 26 25 24 24 23 22 21 21 21 21 21 21 20 19 19 18 18 17 17 16 15 14 14 13 12 12 12 11 11 11 11
Wind_Direction
155 168 168 174 165 163 196 224 240 202 236 257 246 254 146 135 342 279 226 224 266 94 198 267 175 173 163 206 177 132 28 31 42 25 127 112 142 147 143 146 147 147 148 154 161 161 164 165 161 162 158 156 157 156 157 154 151 145 140 137 135 137 136 140 144 150 155 161 168 173 175 174 173 169 165 165 166 162 159 160 161 161 156 156 163 164 165 167 172 170 161 168 179 180 186 190 184
162 159 159 164 162 180 207 213 258 221 227 253 236 241 98 135 234 248 248 329 341 61 153 181 169 169 146 118 175 172 60 53 57 78 100 124 141 141 145 147 148 150 149 155 160 161 163 165 163 161 156 156 158 158 158 154 151 145 140 137 138 140 138 140 142 144 146 149 154 160 164 166 167 167 167 165 163 162 163 166 167 170 172 172 173 177 183 187 194 196 179 178 187 183 190 196 191
163 155 154 160 167 215 238 202 257 251 240 259 230 133 88 228 231 306 6 24 68 86 138 150 160 161 177 187 182 187 107 81 81 94 111 130 138 142 148 146 152 154 149 156 159 162 164 164 164 161 157 158 159 159 159 156 151 146 140 139 142 143 141 140 141 140 139 141 145 150 156 162 166 168 168 164 163 164 166 167 168 171 175 176 180 186 193 199 204 206 196 189 187 179 187 198 194
160 158 160 182 195 219 231 215 252 264 256 261 255 99 90 287 345 9 102 115 106 123 141 149 155 155 235 173 152 134 100 107 99 104 124 139 145 145 146 146 154 154 147 152 156 163 165 164 165 163 159 160 161 163 161 158 153 145 141 140 144 144 143 141 140 139 137 140 142 148 152 158 163 165 165 165 165 165 163 161 163 166 169 171 175 181 187 198 202 204 202 193 187 179 182 195 194
156 162 164 197 233 222 237 244 249 253 261 275 283 80 67 41 45 74 120 129 136 161 167 177 151 150 279 49 79 121 104 112 111 120 133 143 148 142 144 147 150 152 146 144 152 161 164 165 166 165 161 161 164 167 164 161 156 148 145 145 146 145 141 139 139 138 139 141 145 151 153 156 160 163 163 163 164 162 159 159 163 165 165 168 171 174 179 190 197 200 198 193 191 187 185 192 192
150 168 171 205 260 276 248 244 238 242 257 306 296 57 66 71 77 100 126 140 163 182 187 208 179 160 159 62 56 79 103 121 130 137 139 143 146 143 145 144 146 153 149 145 148 155 164 167 169 167 162 164 167 170 168 165 160 154 150 149 148 145 141 139 139 139 141 144 149 157 159 161 162 163 164 163 165 163 161 160 162 164 164 167 169 171 176 179 190 197 196 196 196 192 185 186 189
159 181 185 209 236 235 246 245 247 247 136 317 294 52 84 89 72 93 152 167 180 181 188 206 182 156 132 120 89 70 99 122 132 142 144 145 144 144 144 145 151 156 155 151 147 151 166 167 169 170 167 167 169 172 171 168 164 159 155 152 151 148 145 142 141 142 144 148 152 160 165 166 166 167 167 167 169 167 165 163 161 164 169 169 169 175 178 176 183 194 197 201 200 195 186 182 188
167 188 197 223 219 206 246 251 252 268 103 143 280 46 79 56 13 313 208 193 186 172 176 165 188 181 102 149 119 83 115 120 133 145 146 144 142 144 145 148 154 157 157 155 150 151 167 168 167 172 173 171 171 174 173 172 169 164 160 154 154 153 152 150 148 147 149 151 154 161 167 171 174 175 177 177 175 178 177 171 166 167 171 170 174 182 187 189 190 192 193 199 203 200 192 186 185
179 213 208 231 241 221 242 249 241 259 256 231 232 217 288 312 303 289 247 216 178 183 174 157 203 208 117 129 109 108 126 128 139 145 147 143 140 145 146 149 155 159 158 158 156 152 163 168 166 172 177 176 175 177 176 177 174 170 165 159 158 158 159 159 156 155 155 155 156 160 166 174 180 186 189 185 182 186 188 181 174 171 169 168 176 188 197 198 187 183 183 186 196 204 200 187 175
194 224 230 238 247 240 238 239 222 222 247 241 234 239 272 281 281 275 252 228 186 190 160 158 205 159 135 131 113 119 130 137 143 142 144 143 141 145 146 149 158 163 160 160 158 155 161 166 168 173 179 182 182 181 180 179 176 171 169 168 168 166 167 166 164 163 163 161 158 161 168 174 181 189 191 188 188 190 194 187 180 176 169 168 175 190 201 180 164 172 177 176 182 194 199 186 168
205 212 240 249 236 244 245 237 210 213 234 244 241 237 293 289 278 271 250 235 204 195 162 181 179 132 135 128 115 123 135 142 142 140 142 145 144 144 146 149 160 166 164 160 155 157 162 164 170 174 179 185 186 186 184 179 175 176 179 179 179 177 176 174 173 171 171 169 167 168 172 177 181 185 188 191 192 192 196 191 185 181 172 172 177 189 196 171 164 178 185 183 180 176 187 189 172
227 198 217 241 241 251 264 274 242 253 241 240 215 129 21 310 271 265 250 234 210 203 188 193 169 148 146 127 125 134 146 148 143 144 144 145 143 145 151 153 162 168 164 159 154 159 164 163 168 175 181 187 188 191 189 178 177 185 186 185 185 184 182 181 183 181 179 177 175 177 178 182 183 187 190 191 190 188 194 195 190 185 178 178 181 192 196 182 178 184 193 196 185 170 169 184 183
239 218 223 241 262 267 273 280 253 265 247 222 148 87 10 308 275 262 261 249 217 210 197 181 165 168 145 121 136 146 152 154 151 151 145 144 144 147 153 152 156 163 159 156 159 162 163 164 168 174 181 190 192 196 192 183 191 195 188 188 189 187 186 187 191 188 186 184 184 184 183 185 183 192 199 198 190 185 191 197 194 191 191 188 191 202 201 199 195 187 194 204 189 170 162 175 191
237 243 250 249 257 264 260 262 238 252 230 135 89 48 338 308 293 271 260 250 224 207 178 163 171 172 135 127 148 157 158 159 157 151 148 146 145 146 148 148 147 153 154 153 159 163 162 165 171 172 178 192 194 200 198 189 203 200 193 196 193 193 194 193 193 192 194 193 192 191 188 189 188 195 204 203 193 187 189 194 197 200 202 201 201 204 205 209 210 200 204 216 202 182 174 172 183
237 236 253 258 246 240 230 248 265 259 201 113 80 12 331 315 296 276 244 240 220 157 145 157 184 188 171 178 169 163 159 158 159 153 151 147 142 145 145 147 146 149 153 149 153 158 160 167 174 173 176 189 190 199 198 189 203 202 199 202 198 201 202 197 195 197 199 197 197 195 192 193 197 202 206 203 195 191 187 189 201 209 211 210 204 199 206 215 218 218 219 225 218 205 195 177 167
231 234 240 248 247 232 199 217 245 248 148 106 56 360 337 333 273 274 245 243 217 154 179 174 186 214 188 185 159 157 155 155 160 155 152 146 144 147 145 147 146 147 150 151 154 153 156 166 175 177 178 186 186 195 194 186 201 202 201 206 204 206 206 203 203 204 201 198 198 197 198 197 206 212 210 203 195 191 186 188 202 212 214 214 209 200 202 214 226 233 231 231 230 230 226 203 180
213 232 240 239 236 232 201 207 220 275 73 87 6 356 338 340 276 274 252 235 217 175 185 165 167 165 128 146 142 149 154 157 161 155 150 148 149 151 149 151 152 151 150 151 156 155 157 163 172 177 182 188 184 188 188 184 195 199 201 211 212 209 211 210 209 209 204 201 200 201 204 203 213 221 215 206 195 190 187 189 200 209 212 210 209 206 206 214 230 240 239 236 235 237 243 241 230
208 226 235 239 231 228 245 240 276 331 328 344 342 350 340 337 315 257 226 209 199 177 175 157 148 124 113 133 139 146 155 160 161 158 155 156 158 156 153 157 158 154 152 153 156 159 160 161 169 175 181 192 187 181 180 179 187 194 198 208 213 212 214 213 211 214 211 210 208 205 210 210 214 225 226 216 201 196 192 192 197 201 205 208 207 210 215 220 225 234 241 241 236 236 239 243 245
224 238 234 242 242 240 351 304 308 304 302 320 325 338 335 330 323 238 222 196 184 177 175 169 155 133 130 138 141 149 157 161 161 163 161 161 162 158 157 161 159 155 157 159 159 166 168 166 172 177 179 186 193 187 179 180 186 191 196 201 208 209 213 214 214 218 217 217 213 205 212 217 208 221 230 218 206 204 196 192 194 195 200 207 210 211 215 224 228 227 235 242 241 237 235 237 237
224 237 239 240 255 274 286 273 278 288 302 310 314 325 326 335 339 258 239 198 187 189 177 176 170 151 146 145 147 155 159 160 162 163 162 163 164 162 163 163 161 159 161 163 166 173 180 182 177 178 180 179 189 192 181 182 188 192 197 200 205 204 209 216 213 215 216 216 219 213 216 221 209 222 229 215 208 211 202 192 193 197 201 206 211 218 222 228 233 227 230 238 241 238 232 228 223
207 219 249 264 297 275 266 257 269 286 299 302 307 313 321 356 309 266 245 202 198 203 182 181 177 157 152 151 154 160 159 160 162 162 163 163 164 167 167 163 162 161 162 167 174 181 188 193 184 180 180 178 185 192 188 186 189 193 200 206 209 204 208 216 213 216 220 220 226 222 216 218 214 223 227 214 206 214 212 195 196 205 206 206 209 219 227 226 227 231 231 230 234 233 224 220 218
221 225 254 277 281 270 271 276 283 293 295 291 295 303 326 333 272 251 240 220 202 192 172 173 174 160 155 155 157 161 161 162 163 163 164 163 165 170 168 163 163 164 167 171 177 188 191 188 190 191 186 186 187 189 197 198 194 188 196 209 212 208 210 217 217 218 222 224 227 224 219 217 214 215 216 213 206 213 214 191 195 209 212 208 210 219 225 220 220 232 234 227 229 228 221 220 225
241 230 240 260 266 271 280 282 283 288 286 282 293 309 317 301 267 238 236 232 46 109 153 148 160 158 154 155 159 162 164 165 165 166 165 165 168 171 168 165 167 165 170 174 178 189 187 183 190 192 190 195 191 189 200 205 204 193 195 209 208 206 206 212 217 216 220 223 224 229 228 221 215 212 208 211 209 211 213 201 200 210 215 211 214 222 225 223 222 228 231 228 230 229 224 219 222
242 248 237 256 265 269 273 276 279 278 277 281 292 295 287 282 279 226 224 201 53 109 153 141 145 151 153 157 163 165 165 166 166 167 168 169 170 169 166 166 169 169 171 174 177 183 181 181 184 181 188 198 190 192 202 206 215 209 205 210 212 214 207 202 210 213 218 221 223 230 230 221 214 212 208 210 211 215 215 209 207 211 215 216 221 225 225 229 229 233 234 233 232 228 225 221 215
232 255 261 259 264 263 267 274 276 273 273 277 276 272 271 275 275 226 215 164 103 121 147 147 145 151 157 160 165 167 167 167 167 169 170 174 171 168 169 169 170 169 168 168 170 174 173 175 178 178 187 195 190 193 201 210 223 223 217 215 217 226 219 207 210 213 216 222 225 225 224 222 215 208 208 208 211 222 223 220 220 218 213 213 224 228 226 232 235 238 240 236 233 227 221 222 216
212 247 261 261 263 265 276 280 275 267 263 268 258 251 243 234 222 198 176 148 133 122 138 149 150 155 159 162 168 169 169 169 171 173 173 174 174 171 172 171 167 162 160 163 164 165 169 170 170 174 181 186 190 200 206 213 222 220 221 226 226 230 230 223 220 222 223 228 228 220 222 227 222 210 205 208 217 232 235 235 233 227 220 216 221 227 229 235 237 239 238 228 228 226 217 218 217
196 254 269 268 269 273 282 280 266 250 242 239 237 233 136 192 220 171 131 152 155 140 140 150 155 158 160 163 170 173 172 172 175 176 175 174 176 176 172 169 165 161 160 164 164 163 164 162 161 171 180 182 185 203 217 220 218 209 213 225 232 234 235 235 228 225 227 233 229 217 220 230 233 221 206 212 228 240 243 243 239 228 224 220 220 225 226 233 237 238 233 218 217 219 213 213 213
268 271 275 260 255 257 262 256 237 230 211 201 219 204 146 193 216 81 115 160 167 156 152 157 161 160 161 164 170 175 176 177 178 178 179 177 175 174 171 167 164 162 163 165 166 165 159 156 162 172 177 181 179 189 220 222 200 194 205 212 224 234 237 235 228 222 217 220 221 213 214 223 232 223 211 225 238 247 248 248 245 234 227 222 220 222 223 228 230 226 221 210 206 207 205 209 209
265 271 274 252 224 197 195 186 184 204 160 169 219 201 178 181 106 78 121 162 171 172 165 164 165 162 163 165 171 177 179 179 181 183 183 179 176 174 171 167 162 161 167 169 167 165 159 157 166 171 169 171 172 182 206 211 190 189 201 205 217 235 246 243 231 227 222 221 222 219 216 219 224 219 218 235 241 246 251 251 248 242 230 222 221 220 220 226 227 218 212 203 201 201 202 208 210
254 245 262 255 209 163 112 135 162 158 110 183 230 218 178 148 92 91 133 162 175 179 173 169 168 165 167 169 174 179 180 183 184 187 186 180 179 177 172 168 164 163 170 172 166 164 162 163 167 165 161 161 170 178 172 188 203 199 201 207 217 229 245 251 241 243 239 236 233 225 221 225 230 225 220 234 243 243 249 252 248 245 234 221 219 218 215 221 225 215 200 197 199 199 201 210 211
235 223 234 240 213 131 96 112 167 149 105 203 234 238 174 125 96 102 136 168 184 185 178 175 170 168 171 172 177 180 181 186 185 186 186 183 182 179 175 172 167 168 172 171 168 169 168 169 169 164 165 166 172 171 159 188 209 202 206 214 222 225 230 239 241 255 260 253 246 234 228 235 242 239 229 235 245 241 243 246 239 241 234 221 217 217 215 217 220 212 194 192 199 198 196 204 208
219 225 199 207 219 119 102 82 73 120 111 175 235 244 175 118 93 102 145 182 195 196 182 179 176 173 175 176 180 182 181 184 182 183 187 186 184 181 179 176 172 171 171 170 171 174 173 176 175 172 174 169 171 167 158 193 201 192 209 223 234 236 234 241 240 244 255 267 270 252 237 237 241 246 244 241 246 245 241 239 231 229 224 216 215 219 220 217 215 211 199 191 198 202 201 206 210
204 238 195 185 221 152 128 104 70 85 127 171 233 258 211 111 95 104 159 197 202 205 185 182 184 179 183 184 185 183 179 181 180 184 190 189 186 183 182 180 179 176 175 174 175 176 177 183 186 185 184 176 179 169 162 193 196 190 209 228 242 238 216 221 230 227 234 247 259 264 254 228 231 237 236 233 238 240 235 232 227 221 215 212 215 220 221 218 213 209 207 202 200 204 206 212 215
184 226 202 166 240 219 147 128 95 73 205 171 204 260 268 101 117 140 176 205 210 212 193 186 190 186 190 191 190 188 184 183 182 185 192 191 189 188 187 186 186 182 178 179 180 179 181 192 202 205 201 192 185 171 176 197 201 211 231 246 248 204 161 143 135 154 201 232 239 250 264 246 229 222 214 216 221 223 220 220 220 217 217 216 217 219 219 218 214 211 214 213 210 211 212 215 220
186 206 205 172 204 239 183 122 75 23 233 187 191 239 246 107 192 189 184 205 216 216 202 197 198 195 197 197 198 196 192 188 185 187 193 194 193 192 191 191 190 186 183 184 185 186 189 197 212 222 218 205 193 177 185 198 206 247 268 281 242 109 122 133 129 137 161 208 232 246 252 240 239 240 233 227 223 226 224 222 219 217 218 218 220 220 219 219 217 217 221 221 218 220 222 222 225
296 245 255 221 195 209 156 80 49 13 268 218 208 248 257 123 191 180 186 204 217 218 206 209 209 204 206 204 205 203 198 191 183 187 196 197 196 196 196 196 195 192 189 190 191 192 196 203 215 226 223 211 200 181 178 185 193 232 204 151 137 127 134 134 130 124 127 165 209 231 235 230 233 237 238 236 229 224 225 226 222 217 219 221 222 220 222 223 219 220 228 229 225 225 227 227 228
283 250 244 240 235 209 128 88 60 11 294 222 161 281 262 270 149 161 185 204 216 218 211 214 216 214 215 212 211 208 201 190 180 191 202 201 199 201 200 201 201 197 195 195 197 200 200 205 216 225 223 212 200 178 172 176 178 189 174 158 149 142 142 127 126 125 128 166 184 199 211 217 228 225 214 215 219 217 222 228 223 216 222 225 221 216 222 226 224 226 229 230 230 231 232 231 232
241 238 232 224 233 208 107 90 84 31 294 218 144 268 248 231 243 152 175 205 218 219 215 216 218 221 226 223 220 215 205 192 186 200 209 204 202 206 205 205 206 202 200 199 201 204 204 207 215 221 222 213 195 173 167 176 178 176 165 155 147 140 140 127 128 140 139 159 159 162 182 200 221 223 207 187 177 192 213 225 221 217 226 229 225 220 227 231 230 230 229 227 229 231 233 235 236
227 229 235 228 219 195 117 123 131 61 286 255 175 273 257 236 239 178 183 205 215 219 222 222 221 225 230 230 227 222 212 202 197 207 215 209 206 209 209 208 210 207 205 205 204 207 209 210 213 218 220 211 195 175 168 181 185 175 164 158 151 146 150 145 142 143 121 101 94 91 100 117 120 121 145 153 143 148 168 199 209 208 217 228 228 222 227 230 225 226 227 225 223 224 227 231 232
223 224 231 226 176 224 196 143 146 132 290 295 301 279 266 241 224 206 193 197 197 208 225 230 232 232 234 238 236 229 220 213 208 208 216 215 210 212 213 212 212 210 208 208 207 208 211 212 212 217 220 210 196 180 174 185 188 175 163 156 151 149 151 145 136 128 113 99 84 72 63 72 93 103 95 95 110 120 125 139 173 183 195 207 210 203 185 181 200 213 221 220 220 223 223 221 222
207 226 244 244 166 244 270 120 153 194 192 269 280 263 254 230 221 212 181 185 200 203 215 225 231 236 239 244 242 237 230 225 219 211 216 223 220 217 217 216 215 213 212 212 211 210 212 214 212 216 221 210 197 186 180 184 184 175 164 156 150 147 145 138 130 124 113 100 85 76 63 67 89 107 110 109 111 112 116 123 125 131 162 176 176 172 161 161 152 149 185 207 212 216 217 213 213
202 208 233 252 236 230 258 245 238 239 202 179 284 271 252 196 215 213 168 182 200 196 206 215 218 225 230 237 240 240 238 234 231 220 220 230 231 225 220 219 219 217 215 216 217 216 214 215 213 215 221 211 198 190 185 183 181 179 173 162 155 150 146 143 144 142 130 116 104 93 79 72 79 94 106 116 118 119 121 125 125 122 127 135 132 130 133 137 128 126 166 181 183 194 198 202 210
226 185 205 226 234 221 229 231 236 258 245 129 270 275 268 194 202 183 168 197 192 177 186 201 209 216 223 231 236 238 239 238 237 230 225 228 231 231 227 223 222 220 219 219 221 220 217 216 214 215 219 212 200 193 187 183 179 180 176 168 162 155 153 158 158 152 143 138 128 113 99 87 78 81 90 94 102 113 116 118 129 133 130 129 127 128 125 125 121 115 151 155 152 182 187 187 194
260 123 189 204 213 210 217 232 238 269 303 197 217 256 274 255 212 153 170 211 198 177 168 167 194 210 220 231 235 240 244 243 242 239 233 226 227 233 233 230 227 223 219 220 225 225 219 218 216 214 218 215 204 195 190 183 178 178 173 167 166 161 161 169 167 159 155 152 138 124 114 103 93 89 89 88 90 101 107 113 123 127 129 125 123 135 144 149 155 156 154 144 131 149 168 185 193
51 76 196 198 206 209 218 243 251 262 290 254 218 216 257 256 214 161 184 217 213 191 168 156 171 187 210 236 251 257 259 256 251 246 242 234 230 235 238 237 234 228 222 221 226 228 223 220 218 215 218 217 208 198 192 185 178 179 176 171 172 172 174 177 175 175 172 164 155 140 127 116 109 106 101 98 96 97 102 107 109 113 118 118 119 133 148 155 164 168 174 177 162 165 179 175 170
91 142 174 173 191 208 225 251 263 234 252 267 231 188 258 267 224 191 194 217 219 188 164 150 141 153 194 254 281 280 276 268 260 253 249 242 234 236 237 238 238 234 227 223 226 230 226 221 219 216 216 217 211 201 195 188 180 181 183 179 180 181 182 183 183 190 191 182 179 162 142 132 125 120 115 112 108 103 100 97 96 97 104 110 113 115 113 111 113 115 125 135 141 183 221 187 172
143 179 188 188 194 206 226 244 270 256 249 257 193 177 256 272 239 212 181 55 21 77 169 104 56 13 352 345 326 314 307 292 277 264 255 245 235 230 224 228 234 235 231 225 225 229 228 223 221 218 216 216 214 206 198 191 185 185 187 187 189 190 188 188 190 196 200 201 201 186 163 153 146 143 136 129 125 117 105 92 88 86 90 96 98 96 93 89 89 88 86 85 83 76 57 37 221
191 209 218 219 211 214 236 227 222 251 254 205 117 166 233 255 245 166 102 72 47 354 312 351 343 337 343 340 334 330 324 313 301 283 265 244 231 223 214 216 226 231 231 227 225 227 228 224 222 219 216 217 216 210 201 195 190 188 190 191 193 198 195 193 199 203 208 215 217 205 187 179 176 172 166 159 152 140 127 112 95 82 82 86 88 91 92 90 88 82 76 71 62 51 43 32 18
215 228 230 237 235 228 242 241 229 247 248 115 116 172 225 250 248 113 112 97 75 33 339 337 329 333 337 336 337 336 334 331 319 302 279 241 219 214 213 213 221 230 233 228 225 226 226 223 221 220 218 217 217 213 206 201 196 192 193 194 195 201 202 201 205 211 216 221 224 223 208 195 197 197 195 193 185 171 164 161 155 118 64 69 84 94 100 98 89 79 70 59 52 42 31 23 16
215 230 231 240 248 243 245 247 248 253 224 114 127 190 237 247 209 92 100 90 81 88 34 350 339 339 337 340 346 347 352 352 341 332 313 237 207 203 209 211 215 225 230 226 223 225 226 223 221 220 219 220 219 216 210 205 202 197 196 196 197 202 205 206 210 215 218 219 225 236 227 202 204 211 213 220 219 206 201 202 206 214 233 342 37 89 100 92 78 69 63 54 47 40 34 27 17
222 241 247 249 254 256 259 259 260 262 230 124 140 189 247 245 120 86 99 110 111 119 97 63 19 1 357 358 1 5 12 13 7 11 27 104 183 183 190 192 197 214 225 224 221 224 225 223 221 220 220 221 220 218 215 211 207 204 201 200 201 204 206 207 211 216 218 219 227 238 235 213 207 210 217 229 237 232 229 228 229 235 239 255 270 263 252 70 63 54 53 51 47 40 35 30 24
221 236 247 254 260 258 265 287 311 303 288 212 184 221 256 206 119 119 133 136 133 127 118 104 73 50 37 28 22 22 24 27 28 34 45 61 120 150 162 173 190 213 225 224 222 224 225 223 220 220 221 222 222 220 219 217 213 211 207 205 204 206 209 210 212 217 219 221 228 238 241 233 218 211 221 235 241 240 242 242 242 245 250 256 260 260 259 277 13 33 28 20 23 24 20 18 15
203 227 244 258 300 269 261 241 98 305 272 258 234 241 241 198 166 154 151 152 147 141 134 113 87 71 62 46 32 29 32 33 36 46 58 66 86 106 118 144 184 215 227 229 228 229 230 226 222 221 222 222 222 222 223 221 218 218 216 212 210 210 212 213 215 219 221 222 227 233 238 240 232 226 232 242 242 239 241 243 246 251 254 257 259 263 262 262 276 289 317 340 355 0 4 6 2
252 244 242 155 242 255 250 255 233 229 256 256 233 237 243 244 213 155 162 169 160 153 141 121 106 90 73 56 40 34 36 39 43 53 66 78 86 90 95 103 130 175 206 228 235 238 238 231 226 227 228 227 226 225 227 226 223 224 223 220 217 216 216 217 220 223 225 227 229 233 237 241 241 239 241 244 242 240 240 240 243 247 251 256 258 262 267 269 275 279 287 303 318 334 345 351 352
263 290 302 222 250 243 226 246 254 248 257 258 241 238 244 253 228 162 177 183 166 156 148 136 119 95 76 60 46 39 38 40 46 53 63 79 90 95 100 100 109 124 135 159 189 217 231 229 227 230 234 234 231 229 230 230 228 228 229 227 224 223 222 222 224 226 228 230 233 236 240 243 245 245 245 246 245 244 244 242 244 246 247 252 255 257 264 270 274 278 283 289 299 312 321 327 334
228 262 244 239 268 271 253 250 258 261 262 263 260 252 246 255 245 194 191 183 168 161 151 137 115 90 75 61 46 41 43 43 49 56 63 75 88 100 107 106 106 113 121 129 142 158 180 207 221 228 234 237 236 233 234 235 233 231 232 233 231 229 229 229 229 231 232 234 236 239 242 245 248 249 249 250 249 248 249 247 247 249 249 249 251 252 255 260 267 274 278 282 290 299 308 316 322
221 235 231 227 233 260 267 255 250 260 265 265 267 263 259 284 314 230 194 171 161 159 149 133 115 97 81 68 55 49 49 48 54 60 65 72 79 90 103 109 111 117 123 125 130 141 153 172 195 215 228 235 240 242 242 242 241 238 236 237 237 237 236 236 236 237 237 239 240 241 244 246 249 250 252 252 251 250 251 251 250 251 252 252 252 251 251 253 258 263 268 274 280 286 295 304 313
289 270 254 249 245 247 256 253 244 246 261 266 267 270 274 45 35 267 168 155 152 150 142 132 120 108 95 82 71 67 62 58 60 65 68 72 74 79 87 95 102 110 116 119 126 135 142 148 159 185 205 213 231 244 251 253 251 248 245 243 243 243 243 243 243 243 243 243 244 245 246 247 248 249 252 254 254 252 251 251 250 252 253 254 254 254 253 253 256 260 263 266 269 274 279 287 297